Location: Grassland Mountain Observatory
(35.7543°N, 82.8038°W)
Time: 05:29:23
(UTC-05:00)

Envisat - Pass Details

Date: 05 December 2021
Orbit: 764 x 766 km, 98.2° (Epoch: 19 January)

Event Time Altitude Azimuth Distance (km) Brightness Sun altitude
Rises 06:37:24 0° 355° (N) 3,235 6.0 -9.9°
Reaches altitude 10° 06:40:17 10° 338° (NNW) 2,304 5.1 -9.4°
Maximum altitude 06:43:50 20° 294° (WNW) 1,733 4.2 -8.7°
Drops below altitude 10° 06:47:23 10° 249° (WSW) 2,294 5.0 -8.0°
Sets 06:50:15 0° 232° (SW) 3,215 5.9 -7.5°
